Location: Sternwarte Stuttgart
(48.7824°N, 9.1965°E)
Time: 13:14:19
(UTC+00:00)

ISS - Pass Details

Date: 27 April 2025
Orbit: 416 x 420 km, 51.6° (Epoch: 15 May)

Event Time Altitude Azimuth Distance (km) Brightness Sun altitude
Exits shadow 01:45:51 41° 132° (SE) 614 -3.0 -19.6°
Drops below altitude 10° 01:48:46 10° 76° (ENE) 1,496 -0.2 -19.3°
Sets 01:50:55 0° 70° (ENE) 2,363 1.1 -19.1°
